Location: Unspecified
(38.0989°N, 0.6729°W)
Time: 18:18:43
(UTC+01:00)

Tiangong 2 - Visible Passes

Search period start: 20 November 2017 00:00
Search period end: 30 November 2017 00:00
Orbit: 386 x 391 km, 42.8° (Epoch: 20 November)

Date Brightness Start Highest point End Pass type
(mag) Time Alt. Az. Time Alt. Az. Time Alt. Az.
25 Nov 3.6 07:06:12 10° SSW 07:08:48 23° SE 07:11:23 10° E visible
26 Nov 4.2 06:09:15 10° S 06:10:46 13° SE 06:12:18 10° ESE visible
27 Nov 2.2 06:46:00 10° SW 06:49:02 43° SSE 06:52:07 10° ENE visible
28 Nov 3.2 05:51:06 24° SE 05:51:06 24° SE 05:53:36 10° E visible
28 Nov 1.2 07:24:26 10° W 07:27:36 63° NNW 07:30:47 10° ENE visible
29 Nov 1.0 06:28:31 46° WSW 06:29:20 82° SSE 06:32:32 10° ENE visible
